Time,TemperatureF,DewpointF,PressureIn,WindDirection,WindDirectionDegrees,WindSpeedMPH,WindSpeedGustMPH,Humidity,HourlyPrecipIn,Conditions,Clouds,dailyrainin,SoftwareType,DateUTC
2013-05-30 00:02:00,63.5,63.5,29.88,SSW,201,0.2,1.2,100,0.13,-RA,,0.00,WeatherDisplay:10.37,2013-05-30 05:02:00,
2013-05-30 00:07:00,63.5,63.5,29.88,SSW,201,0.0,0.0,100,0.09,RA,,0.00,WeatherDisplay:10.37,2013-05-30 05:07:00,
2013-05-30 00:12:00,63.6,63.6,29.88,SE,130,0.9,3.5,100,0.09,OVC,,0.00,WeatherDisplay:10.37,2013-05-30 05:12:00,
2013-05-30 00:17:00,63.5,63.5,29.88,ENE,71,1.9,3.5,100,0.06,OVC,,0.00,WeatherDisplay:10.37,2013-05-30 05:17:00,
2013-05-30 00:22:00,63.4,63.4,29.88,SSE,163,2.2,4.6,100,0.05,OVC,,0.00,WeatherDisplay:10.37,2013-05-30 05:22:00,
2013-05-30 00:27:00,63.3,63.3,29.88,NE,51,1.4,2.3,100,0.05,OVC,,0.00,WeatherDisplay:10.37,2013-05-30 05:27:00,
2013-05-30 00:32:00,63.5,63.5,29.88,East,91,1.6,3.5,100,0.05,OVC,,0.00,WeatherDisplay:10.37,2013-05-30 05:32:00,
2013-05-30 00:37:00,63.6,63.6,29.88,ENE,69,2.2,2.4,100,0.05,OVC,,0.00,WeatherDisplay:10.37,2013-05-30 05:37:00,
2013-05-30 00:42:00,63.5,63.5,29.87,SSE,148,1.3,4.6,100,0.04,OVC,,0.00,WeatherDisplay:10.37,2013-05-30 05:42:00,
2013-05-30 00:47:00,63.3,63.3,29.87,East,85,0.9,2.3,100,0.04,OVC,,0.00,WeatherDisplay:10.37,2013-05-30 05:47:00,
2013-05-30 00:52:00,63.3,63.3,29.87,SE,141,2.0,3.5,100,0.04,OVC,,0.00,WeatherDisplay:10.37,2013-05-30 05:52:00,
2013-05-30 00:57:00,63.2,63.2,29.86,ESE,112,1.5,2.7,100,0.02,OVC,,0.00,WeatherDisplay:10.37,2013-05-30 05:57:00,
2013-05-30 01:02:00,63.4,63.4,29.86,SE,129,0.0,0.0,100,0.00,OVC,,0.00,WeatherDisplay:10.37,2013-05-30 06:02:00,
2013-05-30 01:07:00,63.2,63.2,29.86,East,95,1.7,2.3,100,0.00,OVC,,0.00,WeatherDisplay:10.37,2013-05-30 06:07:00,
2013-05-30 01:12:00,63.3,63.3,29.86,East,81,0.0,0.0,100,0.00,OVC,,0.00,WeatherDisplay:10.37,2013-05-30 06:12:00,
2013-05-30 01:17:00,63.0,63.0,29.86,East,81,0.6,2.3,100,0.00,OVC,,0.00,WeatherDisplay:10.37,2013-05-30 06:17:00,
2013-05-30 01:22:00,63.0,63.0,29.86,ENE,75,0.0,1.2,100,0.00,OVC,,0.00,WeatherDisplay:10.37,2013-05-30 06:22:00,
2013-05-30 01:27:00,63.0,63.0,29.86,East,100,0.3,2.3,100,0.00,OVC,,0.00,WeatherDisplay:10.37,2013-05-30 06:27:00,
2013-05-30 01:32:00,62.9,62.9,29.85,East,100,0.0,0.0,100,0.00,OVC,,0.00,WeatherDisplay:10.37,2013-05-30 06:32:00,
2013-05-30 01:37:00,62.8,62.8,29.85,East,100,0.0,0.0,100,0.00,OVC,,0.00,WeatherDisplay:10.37,2013-05-30 06:37:00,
2013-05-30 01:42:00,62.7,62.7,29.85,East,100,0.0,0.0,100,0.00,OVC,,0.00,WeatherDisplay:10.37,2013-05-30 06:42:00,
2013-05-30 01:47:00,62.8,62.8,29.85,East,100,0.0,0.0,100,0.00,OVC,,0.00,WeatherDisplay:10.37,2013-05-30 06:47:00,
2013-05-30 01:52:00,62.8,62.8,29.84,East,100,0.0,0.0,100,0.00,OVC,,0.00,WeatherDisplay:10.37,2013-05-30 06:52:00,
2013-05-30 01:57:00,62.8,62.8,29.84,East,100,0.0,0.0,100,0.00,OVC,,0.00,WeatherDisplay:10.37,2013-05-30 06:57:00,
2013-05-30 02:02:00,62.7,62.7,29.84,NE,54,0.3,3.0,100,0.00,CLR,,0.00,WeatherDisplay:10.37,2013-05-30 07:02:00,
2013-05-30 02:07:00,62.7,62.7,29.84,ENE,75,0.0,0.0,100,0.00,CLR,,0.00,WeatherDisplay:10.37,2013-05-30 07:07:00,
2013-05-30 02:12:00,62.6,62.6,29.84,East,100,0.0,0.0,100,0.00,CLR,,0.00,WeatherDisplay:10.37,2013-05-30 07:12:00,
2013-05-30 02:17:00,62.6,62.6,29.83,East,100,0.0,0.0,100,0.00,CLR,,0.00,WeatherDisplay:10.37,2013-05-30 07:17:00,
2013-05-30 02:22:00,62.6,62.6,29.84,East,100,0.0,0.0,100,0.00,CLR,,0.00,WeatherDisplay:10.37,2013-05-30 07:22:00,
2013-05-30 02:27:00,62.5,62.5,29.83,East,100,0.0,0.0,100,0.00,CLR,,0.00,WeatherDisplay:10.37,2013-05-30 07:27:00,
2013-05-30 02:32:00,62.4,62.4,29.83,East,100,0.0,0.0,100,0.00,CLR,,0.00,WeatherDisplay:10.37,2013-05-30 07:32:00,
2013-05-30 02:37:00,62.4,62.4,29.83,ENE,68,0.5,1.2,100,0.00,CLR,,0.00,WeatherDisplay:10.37,2013-05-30 07:37:00,
2013-05-30 02:42:00,62.3,62.3,29.84,East,96,0.5,2.3,100,0.00,CLR,,0.00,WeatherDisplay:10.37,2013-05-30 07:42:00,
2013-05-30 02:47:00,62.3,62.3,29.84,East,96,0.0,0.0,100,0.00,CLR,,0.00,WeatherDisplay:10.37,2013-05-30 07:47:00,
2013-05-30 02:52:00,62.3,62.3,29.84,ENE,60,0.0,0.0,100,0.00,CLR,,0.00,WeatherDisplay:10.37,2013-05-30 07:52:00,
2013-05-30 02:57:00,62.1,62.1,29.84,NNE,28,0.1,1.6,100,0.00,CLR,,0.00,WeatherDisplay:10.37,2013-05-30 07:57:00,
2013-05-30 03:02:00,62.1,62.1,29.83,ENE,75,0.3,2.3,100,0.00,CLR,,0.00,WeatherDisplay:10.37,2013-05-30 08:02:00,
2013-05-30 03:07:00,62.3,62.3,29.83,ENE,75,0.0,0.0,100,0.00,CLR,,0.00,WeatherDisplay:10.37,2013-05-30 08:07:00,
2013-05-30 03:12:00,62.4,62.4,29.83,NNE,19,0.0,0.0,100,0.00,CLR,,0.00,WeatherDisplay:10.37,2013-05-30 08:12:00,
2013-05-30 03:17:00,62.7,62.7,29.83,NNE,19,0.0,0.0,100,0.00,CLR,,0.00,WeatherDisplay:10.37,2013-05-30 08:17:00,
2013-05-30 03:22:00,63.3,63.3,29.84,SE,144,2.7,4.6,100,0.00,CLR,,0.00,WeatherDisplay:10.37,2013-05-30 08:22:00,
2013-05-30 03:27:00,64.1,64.1,29.83,SE,130,0.6,2.0,100,0.00,CLR,,0.00,WeatherDisplay:10.37,2013-05-30 08:27:00,
2013-05-30 03:32:00,64.6,64.6,29.83,SSE,160,3.2,6.9,100,0.00,CLR,,0.00,WeatherDisplay:10.37,2013-05-30 08:32:00,
2013-05-30 03:37:00,64.8,64.8,29.83,SE,137,2.0,5.8,100,0.00,CLR,,0.00,WeatherDisplay:10.37,2013-05-30 08:37:00,
2013-05-30 03:42:00,65.1,65.1,29.83,ESE,123,1.5,2.3,100,0.00,CLR,,0.00,WeatherDisplay:10.37,2013-05-30 08:42:00,
2013-05-30 03:47:00,65.3,65.3,29.83,SSE,168,1.3,2.3,100,0.00,CLR,,0.00,WeatherDisplay:10.37,2013-05-30 08:47:00,
2013-05-30 03:52:00,65.4,65.4,29.83,South,177,2.8,5.8,100,0.00,CLR,,0.00,WeatherDisplay:10.37,2013-05-30 08:52:00,
2013-05-30 03:57:00,65.4,65.4,29.83,SE,140,1.4,3.5,100,0.00,CLR,,0.00,WeatherDisplay:10.37,2013-05-30 08:57:00,
2013-05-30 04:02:00,65.4,65.4,29.83,SE,130,0.9,3.5,100,0.00,FEW,,0.00,WeatherDisplay:10.37,2013-05-30 09:02:00,
2013-05-30 04:07:00,65.4,65.4,29.83,SE,130,1.2,3.5,100,0.00,FEW,,0.00,WeatherDisplay:10.37,2013-05-30 09:07:00,
2013-05-30 04:12:00,65.5,65.5,29.83,SE,144,1.6,3.5,100,0.00,FEW,,0.00,WeatherDisplay:10.37,2013-05-30 09:12:00,
2013-05-30 04:17:00,65.6,65.6,29.83,SW,225,2.4,6.9,100,0.00,FEW,,0.00,WeatherDisplay:10.37,2013-05-30 09:17:00,
2013-05-30 04:22:00,65.6,65.6,29.83,SE,141,2.7,10.4,100,0.00,FEW,,0.00,WeatherDisplay:10.37,2013-05-30 09:22:00,
2013-05-30 04:27:00,65.7,65.7,29.83,South,170,4.7,9.2,100,0.00,FEW,,0.00,WeatherDisplay:10.37,2013-05-30 09:27:00,
2013-05-30 04:32:00,65.7,65.7,29.83,ESE,105,2.4,6.5,100,0.00,FEW,,0.00,WeatherDisplay:10.37,2013-05-30 09:32:00,
2013-05-30 04:37:00,65.8,65.8,29.82,SSW,201,3.8,5.8,100,0.00,FEW,,0.00,WeatherDisplay:10.37,2013-05-30 09:37:00,
2013-05-30 04:42:00,65.9,65.9,29.82,SE,140,0.9,3.7,100,0.00,FEW,,0.00,WeatherDisplay:10.37,2013-05-30 09:42:00,
2013-05-30 04:47:00,65.9,65.9,29.82,SSW,199,1.9,4.6,100,0.00,FEW,,0.00,WeatherDisplay:10.37,2013-05-30 09:47:00,
2013-05-30 04:52:00,65.9,65.9,29.82,SSW,204,2.3,5.8,100,0.00,FEW,,0.00,WeatherDisplay:10.37,2013-05-30 09:52:00,
2013-05-30 04:57:00,66.0,66.0,29.82,SSE,157,0.5,3.5,100,0.00,FEW,,0.00,WeatherDisplay:10.37,2013-05-30 09:57:00,
2013-05-30 05:02:00,66.0,66.0,29.82,SE,137,2.7,6.9,100,0.00,FEW,,0.00,WeatherDisplay:10.37,2013-05-30 10:02:00,
2013-05-30 05:07:00,66.0,66.0,29.81,ESE,123,1.5,3.5,100,0.00,FEW,,0.00,WeatherDisplay:10.37,2013-05-30 10:07:00,
2013-05-30 05:12:00,66.0,66.0,29.81,SSE,160,7.3,12.7,100,0.00,FEW,,0.00,WeatherDisplay:10.37,2013-05-30 10:12:00,
2013-05-30 05:17:00,66.0,66.0,29.81,SE,134,1.8,4.7,100,0.00,FEW,,0.00,WeatherDisplay:10.37,2013-05-30 10:17:00,
2013-05-30 05:22:00,66.2,66.2,29.81,SE,134,3.1,5.8,100,0.00,FEW,,0.00,WeatherDisplay:10.37,2013-05-30 10:22:00,
2013-05-30 05:27:00,66.0,66.0,29.82,ESE,116,2.6,5.8,100,0.00,FEW,,0.00,WeatherDisplay:10.37,2013-05-30 10:27:00,
2013-05-30 05:32:00,66.2,66.2,29.82,SW,222,2.5,6.9,100,0.00,FEW,,0.00,WeatherDisplay:10.37,2013-05-30 10:32:00,
2013-05-30 05:37:00,66.3,66.3,29.81,SSE,165,4.4,6.9,100,0.00,FEW,,0.00,WeatherDisplay:10.37,2013-05-30 10:37:00,
2013-05-30 05:42:00,66.3,66.3,29.81,SSE,165,4.1,5.8,100,0.00,FEW,,0.00,WeatherDisplay:10.37,2013-05-30 10:42:00,
2013-05-30 05:47:00,66.3,66.3,29.81,ESE,119,3.9,8.1,100,0.00,FEW,,0.00,WeatherDisplay:10.37,2013-05-30 10:47:00,
2013-05-30 05:52:00,66.4,66.4,29.81,WSW,240,5.9,9.2,100,0.00,FEW,,0.00,WeatherDisplay:10.37,2013-05-30 10:52:00,
2013-05-30 05:57:00,66.6,66.6,29.82,SSE,151,4.7,6.9,100,0.00,FEW,,0.00,WeatherDisplay:10.37,2013-05-30 10:57:00,
2013-05-30 06:02:00,66.7,66.7,29.82,South,180,5.6,8.1,100,0.00,CLR,,0.00,WeatherDisplay:10.37,2013-05-30 11:02:00,
2013-05-30 06:07:00,66.9,66.9,29.82,SE,136,2.5,6.9,100,0.00,CLR,,0.00,WeatherDisplay:10.37,2013-05-30 11:07:00,
2013-05-30 06:12:00,67.0,67.0,29.82,SSE,161,3.9,6.9,100,0.00,CLR,,0.00,WeatherDisplay:10.37,2013-05-30 11:12:00,
2013-05-30 06:17:00,67.0,67.0,29.83,WSW,249,4.4,6.9,100,0.00,CLR,,0.00,WeatherDisplay:10.37,2013-05-30 11:17:00,
2013-05-30 06:22:00,67.1,67.1,29.83,SSE,147,2.2,3.5,100,0.00,CLR,,0.00,WeatherDisplay:10.37,2013-05-30 11:22:00,
2013-05-30 06:27:00,67.4,67.4,29.83,SSE,167,2.5,6.9,100,0.00,CLR,,0.00,WeatherDisplay:10.37,2013-05-30 11:27:00,
2013-05-30 06:32:00,67.6,67.6,29.83,SW,226,2.1,4.6,100,0.00,CLR,,0.00,WeatherDisplay:10.37,2013-05-30 11:32:00,
2013-05-30 06:37:00,67.8,67.8,29.83,SSE,163,2.8,4.6,100,0.00,CLR,,0.00,WeatherDisplay:10.37,2013-05-30 11:37:00,
2013-05-30 06:42:00,67.9,67.9,29.83,SW,232,4.1,8.1,100,0.00,CLR,,0.00,WeatherDisplay:10.37,2013-05-30 11:42:00,
2013-05-30 06:47:00,68.1,68.1,29.83,SE,127,4.9,6.9,100,0.00,CLR,,0.00,WeatherDisplay:10.37,2013-05-30 11:47:00,
2013-05-30 06:52:00,68.4,68.4,29.83,SW,215,4.6,6.9,100,0.00,CLR,,0.00,WeatherDisplay:10.37,2013-05-30 11:52:00,
2013-05-30 06:57:00,68.7,68.7,29.82,SSE,165,5.6,9.2,100,0.00,CLR,,0.00,WeatherDisplay:10.37,2013-05-30 11:57:00,
2013-05-30 07:02:00,68.8,68.8,29.82,SE,146,5.5,9.2,100,0.00,FEW,,0.00,WeatherDisplay:10.37,2013-05-30 12:02:00,
2013-05-30 07:07:00,68.7,68.7,29.82,SW,218,3.9,8.1,100,0.00,FEW,,0.00,WeatherDisplay:10.37,2013-05-30 12:07:00,
2013-05-30 07:12:00,68.9,68.9,29.82,SSE,161,6.7,12.7,100,0.00,FEW,,0.00,WeatherDisplay:10.37,2013-05-30 12:12:00,
2013-05-30 07:17:00,69.1,69.1,29.82,SSE,150,2.5,4.6,100,0.00,FEW,,0.00,WeatherDisplay:10.37,2013-05-30 12:17:00,
2013-05-30 07:22:00,69.4,69.4,29.82,South,171,3.5,5.8,100,0.00,FEW,,0.00,WeatherDisplay:10.37,2013-05-30 12:22:00,
2013-05-30 07:27:00,69.7,69.7,29.82,South,180,5.4,9.2,100,0.00,FEW,,0.00,WeatherDisplay:10.37,2013-05-30 12:27:00,
2013-05-30 07:32:00,69.9,69.9,29.82,South,178,6.6,12.7,100,0.00,FEW,,0.00,WeatherDisplay:10.37,2013-05-30 12:32:00,
2013-05-30 07:37:00,70.1,70.1,29.82,ESE,117,4.4,8.0,100,0.00,FEW,,0.00,WeatherDisplay:10.37,2013-05-30 12:37:00,
2013-05-30 07:42:00,70.5,70.5,29.82,SE,134,4.5,10.4,100,0.00,FEW,,0.00,WeatherDisplay:10.37,2013-05-30 12:42:00,
2013-05-30 07:47:00,70.7,70.7,29.82,SE,127,3.7,5.8,100,0.00,FEW,,0.00,WeatherDisplay:10.37,2013-05-30 12:47:00,
2013-05-30 07:52:00,71.1,71.1,29.82,SW,229,5.4,9.2,100,0.00,FEW,,0.00,WeatherDisplay:10.37,2013-05-30 12:52:00,
2013-05-30 07:57:00,71.4,71.4,29.82,ESE,103,4.0,5.8,100,0.00,FEW,,0.00,WeatherDisplay:10.37,2013-05-30 12:57:00,
2013-05-30 08:02:00,71.9,71.9,29.82,SW,228,5.3,8.1,100,0.00,CLR,,0.00,WeatherDisplay:10.37,2013-05-30 13:02:00,
2013-05-30 08:07:00,72.3,72.3,29.82,South,175,3.6,9.2,100,0.00,CLR,,0.00,WeatherDisplay:10.37,2013-05-30 13:07:00,
2013-05-30 08:12:00,72.4,71.2,29.82,South,180,6.9,9.2,96,0.00,CLR,,0.00,WeatherDisplay:10.37,2013-05-30 13:12:00,
2013-05-30 08:17:00,72.7,71.2,29.82,SW,215,6.0,12.7,95,0.00,CLR,,0.00,WeatherDisplay:10.37,2013-05-30 13:17:00,
2013-05-30 08:22:00,73.1,71.6,29.82,SW,225,6.4,10.4,95,0.00,CLR,,0.00,WeatherDisplay:10.37,2013-05-30 13:22:00,
2013-05-30 08:27:00,73.6,71.8,29.82,South,177,5.3,8.1,94,0.00,CLR,,0.00,WeatherDisplay:10.37,2013-05-30 13:27:00,
2013-05-30 08:32:00,73.8,71.3,29.82,ENE,67,9.0,16.1,92,0.00,CLR,,0.00,WeatherDisplay:10.37,2013-05-30 13:32:00,
2013-05-30 08:37:00,73.9,71.4,29.82,SSE,160,8.1,11.5,92,0.00,CLR,,0.00,WeatherDisplay:10.37,2013-05-30 13:37:00,
2013-05-30 08:42:00,74.1,71.3,29.82,SSW,192,6.8,9.8,91,0.00,CLR,,0.00,WeatherDisplay:10.37,2013-05-30 13:42:00,
2013-05-30 08:47:00,74.2,71.4,29.82,SW,215,6.5,9.4,91,0.00,CLR,,0.00,WeatherDisplay:10.37,2013-05-30 13:47:00,
2013-05-30 08:52:00,74.8,71.7,29.82,SSW,205,8.3,11.5,90,0.00,CLR,,0.00,WeatherDisplay:10.37,2013-05-30 13:52:00,
2013-05-30 08:57:00,75.1,71.6,29.81,ESE,123,5.3,9.2,89,0.00,CLR,,0.00,WeatherDisplay:10.37,2013-05-30 13:57:00,
2013-05-30 09:02:00,75.4,71.6,29.82,SSE,164,5.5,9.2,88,0.00,FEW,,0.00,WeatherDisplay:10.37,2013-05-30 14:02:00,
2013-05-30 09:07:00,75.6,71.5,29.82,SSE,158,5.1,8.1,87,0.00,FEW,,0.00,WeatherDisplay:10.37,2013-05-30 14:07:00,
2013-05-30 09:12:00,75.5,71.4,29.82,ENE,64,8.1,11.5,87,0.00,FEW,,0.00,WeatherDisplay:10.37,2013-05-30 14:12:00,
2013-05-30 09:17:00,75.5,70.7,29.82,ESE,109,7.7,11.5,85,0.00,FEW,,0.00,WeatherDisplay:10.37,2013-05-30 14:17:00,
2013-05-30 09:22:00,75.4,70.2,29.82,SSW,209,8.5,17.3,84,0.00,FEW,,0.00,WeatherDisplay:10.37,2013-05-30 14:22:00,
2013-05-30 09:27:00,75.5,70.0,29.82,SW,229,9.3,16.1,83,0.00,FEW,,0.00,WeatherDisplay:10.37,2013-05-30 14:27:00,
2013-05-30 09:32:00,75.8,71.3,29.82,SE,124,6.9,13.8,86,0.00,FEW,,0.00,WeatherDisplay:10.37,2013-05-30 14:32:00,
2013-05-30 09:37:00,76.0,70.8,29.82,South,187,4.2,12.7,84,0.00,FEW,,0.00,WeatherDisplay:10.37,2013-05-30 14:37:00,
2013-05-30 09:42:00,76.4,71.2,29.82,WSW,240,4.4,10.4,84,0.00,FEW,,0.00,WeatherDisplay:10.37,2013-05-30 14:42:00,
2013-05-30 09:47:00,76.0,70.1,29.81,SSW,204,5.1,8.1,82,0.00,FEW,,0.00,WeatherDisplay:10.37,2013-05-30 14:47:00,
2013-05-30 09:52:00,75.7,70.5,29.81,SW,230,6.9,15.0,84,0.00,FEW,,0.00,WeatherDisplay:10.37,2013-05-30 14:52:00,
2013-05-30 09:57:00,75.4,69.9,29.81,SSW,213,9.2,19.6,83,0.00,FEW,,0.00,WeatherDisplay:10.37,2013-05-30 14:57:00,
2013-05-30 10:02:00,75.8,70.6,29.81,ESE,115,6.4,12.7,84,0.00,BKN,,0.00,WeatherDisplay:10.37,2013-05-30 15:02:00,
2013-05-30 10:07:00,76.2,71.0,29.80,SW,228,7.7,15.0,84,0.00,BKN,,0.00,WeatherDisplay:10.37,2013-05-30 15:07:00,
2013-05-30 10:12:00,76.8,70.9,29.80,SSW,204,5.0,10.4,82,0.00,BKN,,0.00,WeatherDisplay:10.37,2013-05-30 15:12:00,
2013-05-30 10:17:00,76.9,69.9,29.80,SE,139,6.5,11.5,79,0.00,BKN,,0.00,WeatherDisplay:10.37,2013-05-30 15:17:00,
2013-05-30 10:22:00,77.0,70.4,29.80,SSW,206,5.9,11.5,80,0.00,BKN,,0.00,WeatherDisplay:10.37,2013-05-30 15:22:00,
2013-05-30 10:27:00,77.8,70.8,29.80,SSE,167,6.1,12.7,79,0.00,BKN,,0.00,WeatherDisplay:10.37,2013-05-30 15:27:00,
2013-05-30 10:32:00,77.2,69.0,29.80,SSW,206,8.8,14.9,76,0.00,BKN,,0.00,WeatherDisplay:10.37,2013-05-30 15:32:00,
2013-05-30 10:37:00,77.3,69.9,29.80,SSW,205,5.5,13.8,78,0.00,BKN,,0.00,WeatherDisplay:10.37,2013-05-30 15:37:00,
2013-05-30 10:42:00,78.1,70.3,29.80,SSW,206,5.4,12.2,77,0.00,BKN,,0.00,WeatherDisplay:10.37,2013-05-30 15:42:00,
2013-05-30 10:47:00,77.9,68.5,29.81,WSW,240,9.6,18.4,73,0.00,BKN,,0.00,WeatherDisplay:10.37,2013-05-30 15:47:00,
2013-05-30 10:52:00,77.1,68.6,29.81,SSW,201,9.4,16.1,75,0.00,BKN,,0.00,WeatherDisplay:10.37,2013-05-30 15:52:00,
2013-05-30 10:57:00,77.1,68.6,29.81,SSE,154,8.6,14.9,75,0.00,BKN,,0.00,WeatherDisplay:10.37,2013-05-30 15:57:00,
2013-05-30 11:02:00,77.9,69.3,29.81,WSW,237,9.3,19.6,75,0.00,BKN,,0.00,WeatherDisplay:10.37,2013-05-30 16:02:00,
2013-05-30 11:07:00,78.3,69.7,29.81,SSW,205,4.6,10.4,75,0.00,BKN,,0.00,WeatherDisplay:10.37,2013-05-30 16:07:00,
2013-05-30 11:12:00,78.8,69.8,29.81,SW,229,4.1,9.2,74,0.00,BKN,,0.00,WeatherDisplay:10.37,2013-05-30 16:12:00,
2013-05-30 11:17:00,78.2,69.2,29.82,SSW,195,5.5,12.7,74,0.00,BKN,,0.00,WeatherDisplay:10.37,2013-05-30 16:17:00,
2013-05-30 11:22:00,78.0,70.2,29.81,WNW,292,5.7,8.2,77,0.00,BKN,,0.00,WeatherDisplay:10.37,2013-05-30 16:22:00,
2013-05-30 11:27:00,78.8,69.8,29.81,East,79,6.0,13.8,74,0.00,BKN,,0.00,WeatherDisplay:10.37,2013-05-30 16:27:00,
2013-05-30 11:32:00,78.9,68.3,29.81,SE,134,6.2,12.7,70,0.00,BKN,,0.00,WeatherDisplay:10.37,2013-05-30 16:32:00,
2013-05-30 11:37:00,78.4,68.6,29.81,SSW,205,7.4,19.5,72,0.00,BKN,,0.00,WeatherDisplay:10.37,2013-05-30 16:37:00,
2013-05-30 11:42:00,78.9,69.9,29.81,SSW,202,6.5,10.4,74,0.00,BKN,,0.00,WeatherDisplay:10.37,2013-05-30 16:42:00,
2013-05-30 11:47:00,79.3,69.5,29.81,SSE,158,5.9,11.7,72,0.00,BKN,,0.00,WeatherDisplay:10.37,2013-05-30 16:47:00,
2013-05-30 11:52:00,79.5,68.4,29.81,SSW,198,6.9,16.1,69,0.00,BKN,,0.00,WeatherDisplay:10.37,2013-05-30 16:52:00,
2013-05-30 11:57:00,79.4,67.9,29.80,SSW,206,7.4,15.0,68,0.00,BKN,,0.00,WeatherDisplay:10.37,2013-05-30 16:57:00,
2013-05-30 12:02:00,80.0,68.1,29.80,SSW,204,9.5,16.1,67,0.00,BKN,,0.00,WeatherDisplay:10.37,2013-05-30 17:02:00,
2013-05-30 12:07:00,79.8,68.3,29.80,SSE,160,4.2,7.5,68,0.00,BKN,,0.00,WeatherDisplay:10.37,2013-05-30 17:07:00,
2013-05-30 12:12:00,79.0,69.2,29.80,SSE,157,5.6,12.7,72,0.01,RA,,0.01,WeatherDisplay:10.37,2013-05-30 17:12:00,
2013-05-30 12:17:00,76.6,71.7,29.80,WSW,240,4.6,11.5,85,0.03,RA,,0.03,WeatherDisplay:10.37,2013-05-30 17:17:00,
2013-05-30 12:22:00,75.5,73.3,29.80,SSE,153,4.1,5.8,93,0.03,RA,,0.03,WeatherDisplay:10.37,2013-05-30 17:22:00,
2013-05-30 12:27:00,75.7,75.1,29.80,SE,146,3.7,8.2,98,0.03,BKN,,0.03,WeatherDisplay:10.37,2013-05-30 17:27:00,
2013-05-30 12:32:00,76.6,75.1,29.80,SE,140,5.7,13.8,95,0.03,BKN,,0.03,WeatherDisplay:10.37,2013-05-30 17:32:00,
2013-05-30 12:37:00,77.7,74.9,29.80,ESE,110,4.3,10.4,91,0.03,BKN,,0.03,WeatherDisplay:10.37,2013-05-30 17:37:00,
2013-05-30 12:42:00,78.4,71.3,29.79,WSW,244,7.2,10.7,79,0.03,BKN,,0.03,WeatherDisplay:10.37,2013-05-30 17:42:00,
2013-05-30 12:47:00,79.1,71.3,29.79,NNW,339,3.5,9.2,77,0.03,BKN,,0.03,WeatherDisplay:10.37,2013-05-30 17:47:00,
2013-05-30 12:52:00,79.0,70.0,29.79,SW,215,6.4,9.9,74,0.03,BKN,,0.03,WeatherDisplay:10.37,2013-05-30 17:52:00,
2013-05-30 12:57:00,78.7,70.1,29.79,SSW,199,7.3,16.1,75,0.03,BKN,,0.03,WeatherDisplay:10.37,2013-05-30 17:57:00,
2013-05-30 13:02:00,75.4,71.6,29.81,SW,228,9.9,16.3,88,0.08,-RA,,0.10,WeatherDisplay:10.37,2013-05-30 18:02:00,
2013-05-30 13:07:00,72.6,71.1,29.80,SSW,206,5.1,13.8,95,0.11,-RA,,0.11,WeatherDisplay:10.37,2013-05-30 18:07:00,
2013-05-30 13:12:00,71.6,71.6,29.80,SW,222,2.8,3.5,100,0.10,-RA,,0.11,WeatherDisplay:10.37,2013-05-30 18:12:00,
2013-05-30 13:17:00,71.1,71.1,29.80,SSW,211,5.6,8.1,100,0.08,-RA,,0.11,WeatherDisplay:10.37,2013-05-30 18:17:00,
2013-05-30 13:22:00,70.9,70.9,29.80,West,264,6.2,9.2,100,0.08,-RA,,0.11,WeatherDisplay:10.37,2013-05-30 18:22:00,
2013-05-30 13:27:00,71.3,71.3,29.79,SSW,192,5.6,10.4,100,0.08,-RA,,0.11,WeatherDisplay:10.37,2013-05-30 18:27:00,
2013-05-30 13:32:00,71.9,71.9,29.79,South,178,3.6,6.9,100,0.08,-RA,,0.11,WeatherDisplay:10.37,2013-05-30 18:32:00,
2013-05-30 13:37:00,73.1,73.1,29.78,SW,228,5.5,8.9,100,0.08,-RA,,0.11,WeatherDisplay:10.37,2013-05-30 18:37:00,
2013-05-30 13:42:00,74.1,74.1,29.78,SSW,208,6.5,12.7,100,0.08,-RA,,0.11,WeatherDisplay:10.37,2013-05-30 18:42:00,
2013-05-30 13:47:00,75.0,75.0,29.78,East,100,5.3,10.4,100,0.08,-RA,,0.11,WeatherDisplay:10.37,2013-05-30 18:47:00,
2013-05-30 13:52:00,76.0,76.0,29.78,NE,40,3.5,5.8,100,0.08,-RA,,0.11,WeatherDisplay:10.37,2013-05-30 18:52:00,
2013-05-30 13:57:00,76.8,75.6,29.78,SSE,154,5.9,8.1,96,0.08,-RA,,0.11,WeatherDisplay:10.37,2013-05-30 18:57:00,
2013-05-30 14:02:00,77.4,75.2,29.77,ESE,123,3.4,8.1,93,0.03,BKN,,0.11,WeatherDisplay:10.37,2013-05-30 19:02:00,
2013-05-30 14:07:00,78.4,74.5,29.77,SSW,212,7.1,11.5,88,0.00,BKN,,0.11,WeatherDisplay:10.37,2013-05-30 19:07:00,
2013-05-30 14:12:00,79.5,73.2,29.76,SSW,208,6.8,16.1,81,0.00,BKN,,0.11,WeatherDisplay:10.37,2013-05-30 19:12:00,
2013-05-30 14:17:00,80.2,72.3,29.76,SW,233,4.2,9.2,77,0.00,BKN,,0.11,WeatherDisplay:10.37,2013-05-30 19:17:00,
2013-05-30 14:22:00,80.4,69.7,29.76,South,189,6.8,17.3,70,0.00,BKN,,0.11,WeatherDisplay:10.37,2013-05-30 19:22:00,
2013-05-30 14:27:00,80.9,70.2,29.75,East,95,5.5,10.4,70,0.00,BKN,,0.11,WeatherDisplay:10.37,2013-05-30 19:27:00,
2013-05-30 14:32:00,81.4,69.4,29.75,SW,215,7.8,15.0,67,0.00,BKN,,0.11,WeatherDisplay:10.37,2013-05-30 19:32:00,
2013-05-30 14:37:00,81.3,68.4,29.75,SW,219,4.7,8.1,65,0.00,BKN,,0.11,WeatherDisplay:10.37,2013-05-30 19:37:00,
2013-05-30 14:42:00,81.0,66.8,29.75,SSW,204,6.3,16.1,62,0.00,BKN,,0.11,WeatherDisplay:10.37,2013-05-30 19:42:00,
2013-05-30 14:47:00,81.4,68.1,29.75,South,177,5.4,11.5,64,0.00,BKN,,0.11,WeatherDisplay:10.37,2013-05-30 19:47:00,
2013-05-30 14:52:00,81.8,67.0,29.75,SSW,212,7.2,11.5,61,0.00,BKN,,0.11,WeatherDisplay:10.37,2013-05-30 19:52:00,
2013-05-30 14:57:00,81.9,67.1,29.75,SSW,211,3.4,7.6,61,0.00,BKN,,0.11,WeatherDisplay:10.37,2013-05-30 19:57:00,
2013-05-30 15:02:00,82.3,68.9,29.74,SSW,205,3.9,5.8,64,0.00,SCT,,0.11,WeatherDisplay:10.37,2013-05-30 20:02:00,
2013-05-30 15:07:00,81.6,67.8,29.74,SW,226,6.2,11.5,63,0.00,SCT,,0.11,WeatherDisplay:10.37,2013-05-30 20:07:00,
2013-05-30 15:12:00,80.9,65.7,29.74,South,189,7.4,13.8,60,0.00,SCT,,0.11,WeatherDisplay:10.37,2013-05-30 20:12:00,
2013-05-30 15:17:00,80.9,66.2,29.74,SSW,206,8.0,15.0,61,0.00,SCT,,0.11,WeatherDisplay:10.37,2013-05-30 20:17:00,
2013-05-30 15:22:00,81.3,67.0,29.74,ENE,71,7.1,10.4,62,0.00,SCT,,0.11,WeatherDisplay:10.37,2013-05-30 20:22:00,
2013-05-30 15:27:00,81.8,66.1,29.74,SSW,201,8.6,16.1,59,0.00,SCT,,0.11,WeatherDisplay:10.37,2013-05-30 20:27:00,
2013-05-30 15:32:00,81.8,66.6,29.74,SE,139,5.5,13.8,60,0.00,SCT,,0.11,WeatherDisplay:10.37,2013-05-30 20:32:00,
2013-05-30 15:37:00,81.3,64.6,29.74,SSW,198,10.1,16.1,57,0.00,SCT,,0.11,WeatherDisplay:10.37,2013-05-30 20:37:00,
2013-05-30 15:42:00,81.4,63.7,29.74,SW,219,8.9,16.1,55,0.00,SCT,,0.11,WeatherDisplay:10.37,2013-05-30 20:42:00,
2013-05-30 15:47:00,81.5,64.8,29.74,SW,223,7.2,13.8,57,0.00,SCT,,0.11,WeatherDisplay:10.37,2013-05-30 20:47:00,
2013-05-30 15:52:00,80.8,64.6,29.74,SE,137,10.6,17.3,58,0.00,SCT,,0.11,WeatherDisplay:10.37,2013-05-30 20:52:00,
2013-05-30 15:57:00,80.4,65.2,29.73,SSW,209,6.7,10.4,60,0.00,SCT,,0.11,WeatherDisplay:10.37,2013-05-30 20:57:00,
2013-05-30 16:02:00,80.0,64.9,29.73,WSW,240,8.9,16.1,60,0.00,BKN,,0.11,WeatherDisplay:10.37,2013-05-30 21:02:00,
2013-05-30 16:07:00,79.5,65.8,29.73,SSE,148,4.3,9.2,63,0.00,BKN,,0.11,WeatherDisplay:10.37,2013-05-30 21:07:00,
2013-05-30 16:12:00,79.3,65.1,29.73,WSW,250,3.1,6.9,62,0.00,BKN,,0.11,WeatherDisplay:10.37,2013-05-30 21:12:00,
2013-05-30 16:17:00,79.3,65.6,29.73,South,181,4.3,6.9,63,0.00,BKN,,0.11,WeatherDisplay:10.37,2013-05-30 21:17:00,
2013-05-30 16:22:00,79.1,65.4,29.73,SW,229,8.2,20.9,63,0.00,BKN,,0.11,WeatherDisplay:10.37,2013-05-30 21:22:00,
2013-05-30 16:27:00,79.2,65.1,29.73,South,191,7.2,11.5,62,0.00,BKN,,0.11,WeatherDisplay:10.37,2013-05-30 21:27:00,
2013-05-30 16:32:00,79.3,65.1,29.73,WSW,247,5.7,11.5,62,0.00,BKN,,0.11,WeatherDisplay:10.37,2013-05-30 21:32:00,
2013-05-30 16:37:00,79.3,65.6,29.73,WNW,297,4.9,11.5,63,0.00,BKN,,0.11,WeatherDisplay:10.37,2013-05-30 21:37:00,
2013-05-30 16:42:00,79.4,65.2,29.73,SSE,153,7.3,14.2,62,0.00,BKN,,0.11,WeatherDisplay:10.37,2013-05-30 21:42:00,
2013-05-30 16:47:00,79.8,65.2,29.73,SSW,194,8.8,13.8,61,0.00,BKN,,0.11,WeatherDisplay:10.37,2013-05-30 21:47:00,
2013-05-30 16:52:00,79.8,65.2,29.73,North,352,6.2,10.4,61,0.00,BKN,,0.11,WeatherDisplay:10.37,2013-05-30 21:52:00,
2013-05-30 16:57:00,79.7,65.5,29.72,SSW,196,6.7,11.5,62,0.00,BKN,,0.11,WeatherDisplay:10.37,2013-05-30 21:57:00,
2013-05-30 17:02:00,79.9,66.2,29.71,SE,127,4.7,9.2,63,0.00,SCT,,0.11,WeatherDisplay:10.37,2013-05-30 22:02:00,
2013-05-30 17:07:00,79.0,66.2,29.71,WNW,302,6.8,18.4,65,0.00,SCT,,0.11,WeatherDisplay:10.37,2013-05-30 22:07:00,
2013-05-30 17:12:00,78.4,66.5,29.70,SSW,199,9.8,20.7,67,0.00,SCT,,0.11,WeatherDisplay:10.37,2013-05-30 22:12:00,
2013-05-30 17:17:00,77.7,68.0,29.70,South,181,7.9,11.5,72,0.01,RA,,0.12,WeatherDisplay:10.37,2013-05-30 22:17:00,
2013-05-30 17:22:00,77.1,69.7,29.70,SSE,167,5.2,8.5,78,0.01,RA,,0.12,WeatherDisplay:10.37,2013-05-30 22:22:00,
2013-05-30 17:27:00,76.7,70.1,29.71,SSW,209,5.7,10.3,80,0.01,SCT,,0.12,WeatherDisplay:10.37,2013-05-30 22:27:00,
2013-05-30 17:32:00,76.1,70.2,29.71,SSE,164,9.1,19.6,82,0.01,SCT,,0.12,WeatherDisplay:10.37,2013-05-30 22:32:00,
2013-05-30 17:37:00,75.4,70.9,29.72,West,270,7.1,13.5,86,0.01,SCT,,0.12,WeatherDisplay:10.37,2013-05-30 22:37:00,
2013-05-30 17:42:00,74.8,70.7,29.72,WSW,252,7.1,15.0,87,0.01,SCT,,0.12,WeatherDisplay:10.37,2013-05-30 22:42:00,
2013-05-30 17:47:00,74.4,70.6,29.72,South,189,7.5,12.7,88,0.01,SCT,,0.12,WeatherDisplay:10.37,2013-05-30 22:47:00,
2013-05-30 17:52:00,74.7,71.2,29.72,SSE,164,5.1,9.2,89,0.01,SCT,,0.12,WeatherDisplay:10.37,2013-05-30 22:52:00,
2013-05-30 17:57:00,74.9,71.4,29.72,SSE,151,1.4,4.5,89,0.01,SCT,,0.12,WeatherDisplay:10.37,2013-05-30 22:57:00,
2013-05-30 18:02:00,75.0,71.2,29.72,SSE,147,2.4,5.8,88,0.01,BKN,,0.12,WeatherDisplay:10.37,2013-05-30 23:02:00,
2013-05-30 18:07:00,75.1,71.3,29.71,SSW,213,1.2,3.5,88,0.01,BKN,,0.12,WeatherDisplay:10.37,2013-05-30 23:07:00,
2013-05-30 18:12:00,75.2,70.7,29.71,SSW,194,1.8,3.5,86,0.01,BKN,,0.12,WeatherDisplay:10.37,2013-05-30 23:12:00,
2013-05-30 18:17:00,75.1,69.9,29.70,SSW,209,4.0,7.4,84,0.00,BKN,,0.12,WeatherDisplay:10.37,2013-05-30 23:17:00,
2013-05-30 18:22:00,75.1,69.2,29.71,SSW,204,3.7,8.1,82,0.00,BKN,,0.12,WeatherDisplay:10.37,2013-05-30 23:22:00,
2013-05-30 18:27:00,75.4,69.5,29.71,SSW,204,0.8,3.5,82,0.00,BKN,,0.12,WeatherDisplay:10.37,2013-05-30 23:27:00,
2013-05-30 18:32:00,75.4,68.8,29.71,SW,220,1.4,4.2,80,0.00,BKN,,0.12,WeatherDisplay:10.37,2013-05-30 23:32:00,
2013-05-30 18:37:00,75.1,68.1,29.70,SSW,205,3.6,6.5,79,0.00,BKN,,0.12,WeatherDisplay:10.37,2013-05-30 23:37:00,
2013-05-30 18:42:00,75.0,68.0,29.72,SSE,168,4.3,6.9,79,0.00,BKN,,0.12,WeatherDisplay:10.37,2013-05-30 23:42:00,
2013-05-30 18:47:00,74.9,67.9,29.71,SSE,151,3.8,4.8,79,0.00,BKN,,0.12,WeatherDisplay:10.37,2013-05-30 23:47:00,
2013-05-30 18:52:00,75.0,68.8,29.72,WSW,242,1.5,4.6,81,0.00,BKN,,0.12,WeatherDisplay:10.37,2013-05-30 23:52:00,
2013-05-30 18:57:00,75.0,68.8,29.72,SW,215,2.9,5.8,81,0.00,BKN,,0.12,WeatherDisplay:10.37,2013-05-30 23:57:00,
2013-05-30 19:02:00,75.0,69.1,29.72,South,188,4.1,7.2,82,0.00,-RA,,0.12,WeatherDisplay:10.37,2013-05-31 00:02:00,
2013-05-30 19:07:00,75.1,69.2,29.73,South,175,4.5,6.9,82,0.00,-RA,,0.12,WeatherDisplay:10.37,2013-05-31 00:07:00,
2013-05-30 19:12:00,72.3,66.1,29.73,SSE,158,8.4,14.2,81,0.06,-RA,,0.18,WeatherDisplay:10.37,2013-05-31 00:12:00,
2013-05-30 19:17:00,69.8,67.1,29.73,SW,220,3.5,5.8,91,0.08,-RA,,0.20,WeatherDisplay:10.37,2013-05-31 00:17:00,
2013-05-30 19:22:00,68.3,67.4,29.72,SSE,153,1.8,3.5,97,0.09,-RA,,0.21,WeatherDisplay:10.37,2013-05-31 00:22:00,
2013-05-30 19:27:00,67.8,67.8,29.72,SE,127,1.4,3.5,100,0.10,-RA,,0.22,WeatherDisplay:10.37,2013-05-31 00:27:00,
2013-05-30 19:32:00,67.4,67.4,29.73,SW,219,2.4,3.5,100,0.10,-RA,,0.22,WeatherDisplay:10.37,2013-05-31 00:32:00,
2013-05-30 19:37:00,67.2,67.2,29.73,SSE,150,2.5,3.5,100,0.11,-RA,,0.23,WeatherDisplay:10.37,2013-05-31 00:37:00,
2013-05-30 19:42:00,67.1,67.1,29.74,SSE,164,1.3,3.5,100,0.12,-RA,,0.24,WeatherDisplay:10.37,2013-05-31 00:42:00,
2013-05-30 19:47:00,67.1,67.1,29.74,NE,38,1.7,4.6,100,0.13,-RA,,0.25,WeatherDisplay:10.37,2013-05-31 00:47:00,
2013-05-30 19:52:00,67.0,67.0,29.74,WSW,240,6.0,8.1,100,0.13,-RA,,0.25,WeatherDisplay:10.37,2013-05-31 00:52:00,
2013-05-30 19:57:00,66.8,66.8,29.73,SSW,196,3.8,6.9,100,0.13,-RA,,0.25,WeatherDisplay:10.37,2013-05-31 00:57:00,
2013-05-30 20:02:00,66.5,66.5,29.74,SE,130,3.7,5.8,100,0.13,-RA,,0.25,WeatherDisplay:10.37,2013-05-31 01:02:00,
2013-05-30 20:07:00,66.3,66.3,29.75,SSW,209,4.7,9.2,100,0.13,-RA,,0.25,WeatherDisplay:10.37,2013-05-31 01:07:00,
2013-05-30 20:12:00,66.0,66.0,29.77,WSW,244,6.7,11.5,100,0.08,-RA,,0.26,WeatherDisplay:10.37,2013-05-31 01:12:00,
2013-05-30 20:17:00,65.7,65.7,29.77,SW,225,5.4,12.7,100,0.06,-RA,,0.26,WeatherDisplay:10.37,2013-05-31 01:17:00,
2013-05-30 20:22:00,65.5,65.5,29.77,SW,222,5.3,9.4,100,0.06,-RA,,0.27,WeatherDisplay:10.37,2013-05-31 01:22:00,
2013-05-30 20:27:00,65.5,65.5,29.76,South,178,2.6,7.0,100,0.05,-RA,,0.27,WeatherDisplay:10.37,2013-05-31 01:27:00,
2013-05-30 20:32:00,65.4,65.4,29.75,SSW,198,2.9,5.8,100,0.05,-RA,,0.27,WeatherDisplay:10.37,2013-05-31 01:32:00,
2013-05-30 20:37:00,65.2,65.2,29.75,SSE,160,4.3,8.1,100,0.04,-RA,,0.27,WeatherDisplay:10.37,2013-05-31 01:37:00,
2013-05-30 20:42:00,65.1,65.1,29.75,SSE,147,3.9,6.9,100,0.03,-RA,,0.27,WeatherDisplay:10.37,2013-05-31 01:42:00,
2013-05-30 20:47:00,65.0,65.0,29.75,SE,134,4.0,9.2,100,0.02,-RA,,0.27,WeatherDisplay:10.37,2013-05-31 01:47:00,
2013-05-30 20:52:00,64.9,64.9,29.76,SSW,195,3.0,5.6,100,0.02,-RA,,0.27,WeatherDisplay:10.37,2013-05-31 01:52:00,
2013-05-30 20:57:00,64.8,64.8,29.77,SSW,202,4.2,8.1,100,0.02,-RA,,0.27,WeatherDisplay:10.37,2013-05-31 01:57:00,
2013-05-30 21:02:00,64.6,64.6,29.78,South,188,3.3,5.3,100,0.02,BKN,,0.27,WeatherDisplay:10.37,2013-05-31 02:02:00,
2013-05-30 21:07:00,64.4,64.4,29.78,SSW,206,5.3,11.5,100,0.02,BKN,,0.27,WeatherDisplay:10.37,2013-05-31 02:07:00,
2013-05-30 21:12:00,64.3,64.3,29.78,SE,141,6.1,12.7,100,0.02,RA,,0.28,WeatherDisplay:10.37,2013-05-31 02:12:00,
2013-05-30 21:17:00,64.0,64.0,29.78,SSW,194,4.0,8.1,100,0.02,RA,,0.28,WeatherDisplay:10.37,2013-05-31 02:17:00,
2013-05-30 21:22:00,63.9,63.9,29.78,ENE,64,2.6,9.2,100,0.01,BKN,,0.28,WeatherDisplay:10.37,2013-05-31 02:22:00,
2013-05-30 21:27:00,63.7,63.7,29.78,ESE,113,4.6,6.9,100,0.01,BKN,,0.28,WeatherDisplay:10.37,2013-05-31 02:27:00,
2013-05-30 21:32:00,63.5,63.5,29.77,SE,130,3.1,9.3,100,0.01,BKN,,0.28,WeatherDisplay:10.37,2013-05-31 02:32:00,
2013-05-30 21:37:00,63.3,63.3,29.77,SSW,195,4.5,10.4,100,0.01,BKN,,0.28,WeatherDisplay:10.37,2013-05-31 02:37:00,
2013-05-30 21:42:00,63.3,63.3,29.77,ESE,117,4.1,5.8,100,0.01,BKN,,0.28,WeatherDisplay:10.37,2013-05-31 02:42:00,
2013-05-30 21:47:00,63.1,63.1,29.77,ESE,115,5.3,9.2,100,0.01,BKN,,0.28,WeatherDisplay:10.37,2013-05-31 02:47:00,
2013-05-30 21:52:00,62.9,62.9,29.78,ESE,117,2.5,5.8,100,0.01,BKN,,0.28,WeatherDisplay:10.37,2013-05-31 02:52:00,
2013-05-30 21:57:00,62.8,62.8,29.78,ESE,119,2.8,5.0,100,0.01,BKN,,0.28,WeatherDisplay:10.37,2013-05-31 02:57:00,
2013-05-30 22:02:00,62.6,62.6,29.77,SSE,157,5.4,9.2,100,0.01,BKN,,0.28,WeatherDisplay:10.37,2013-05-31 03:02:00,
2013-05-30 22:07:00,62.5,62.5,29.77,South,180,4.1,6.6,100,0.01,BKN,,0.28,WeatherDisplay:10.37,2013-05-31 03:07:00,
2013-05-30 22:12:00,62.5,62.5,29.78,South,182,4.8,6.9,100,0.00,BKN,,0.28,WeatherDisplay:10.37,2013-05-31 03:12:00,
2013-05-30 22:17:00,62.2,62.2,29.78,SSW,194,3.7,6.9,100,0.00,BKN,,0.28,WeatherDisplay:10.37,2013-05-31 03:17:00,
2013-05-30 22:22:00,62.3,62.3,29.78,South,171,4.7,6.9,100,0.00,BKN,,0.28,WeatherDisplay:10.37,2013-05-31 03:22:00,
2013-05-30 22:27:00,62.1,62.1,29.78,NNE,33,4.2,16.1,100,0.00,BKN,,0.28,WeatherDisplay:10.37,2013-05-31 03:27:00,
2013-05-30 22:32:00,62.0,62.0,29.79,SE,139,5.7,9.2,100,0.00,BKN,,0.28,WeatherDisplay:10.37,2013-05-31 03:32:00,
2013-05-30 22:37:00,62.1,62.1,29.79,ESE,113,3.5,5.8,100,0.00,BKN,,0.28,WeatherDisplay:10.37,2013-05-31 03:37:00,
2013-05-30 22:42:00,62.0,62.0,29.79,SW,215,4.3,10.4,100,0.00,BKN,,0.28,WeatherDisplay:10.37,2013-05-31 03:42:00,
2013-05-30 22:47:00,62.0,62.0,29.78,SSW,213,6.3,9.2,100,0.00,BKN,,0.28,WeatherDisplay:10.37,2013-05-31 03:47:00,
2013-05-30 22:52:00,62.0,62.0,29.78,SSW,209,4.1,5.8,100,0.00,BKN,,0.28,WeatherDisplay:10.37,2013-05-31 03:52:00,
2013-05-30 22:57:00,61.9,61.9,29.78,South,191,5.5,11.5,100,0.00,BKN,,0.28,WeatherDisplay:10.37,2013-05-31 03:57:00,
2013-05-30 23:01:00,61.9,61.9,29.78,South,180,7.9,13.8,100,0.00,-RA,,0.28,WeatherDisplay:10.37,2013-05-31 04:01:00,
2013-05-30 23:03:00,62.0,62.0,29.78,SSE,156,2.8,5.8,100,0.00,-RA,,0.28,WeatherDisplay:10.37,2013-05-31 04:03:00,
2013-05-30 23:08:00,61.9,61.9,29.77,SSE,160,7.7,12.7,100,0.00,-RA,,0.28,WeatherDisplay:10.37,2013-05-31 04:08:00,
2013-05-30 23:13:00,61.9,61.9,29.77,SSE,164,7.2,12.7,100,0.00,-RA,,0.28,WeatherDisplay:10.37,2013-05-31 04:13:00,
2013-05-30 23:18:00,61.9,61.9,29.76,SSW,194,4.7,8.1,100,0.00,-RA,,0.28,WeatherDisplay:10.37,2013-05-31 04:18:00,
2013-05-30 23:23:00,61.7,61.7,29.76,South,182,7.6,11.5,100,0.00,-RA,,0.28,WeatherDisplay:10.37,2013-05-31 04:23:00,
2013-05-30 23:28:00,61.8,61.8,29.76,ESE,115,7.1,17.3,100,0.00,-RA,,0.28,WeatherDisplay:10.37,2013-05-31 04:28:00,
2013-05-30 23:33:00,61.9,61.9,29.76,NW,311,4.1,8.1,100,0.00,-RA,,0.28,WeatherDisplay:10.37,2013-05-31 04:33:00,
2013-05-30 23:38:00,61.9,61.9,29.76,ESE,102,5.6,10.4,100,0.00,-RA,,0.28,WeatherDisplay:10.37,2013-05-31 04:38:00,
2013-05-30 23:43:00,61.7,61.7,29.75,SSE,161,4.1,6.9,100,0.00,-RA,,0.28,WeatherDisplay:10.37,2013-05-31 04:43:00,
2013-05-30 23:48:00,61.8,61.8,29.76,SSE,150,5.0,11.5,100,0.00,-RA,,0.28,WeatherDisplay:10.37,2013-05-31 04:48:00,
2013-05-30 23:53:00,61.9,61.9,29.76,SSW,206,4.4,9.2,100,0.00,-RA,,0.28,WeatherDisplay:10.37,2013-05-31 04:53:00,
2013-05-30 23:58:00,61.9,61.9,29.76,SSE,147,4.4,6.9,100,0.00,-RA,,0.28,WeatherDisplay:10.37,2013-05-31 04:58:00,